This is the latest recevied weather packets stored in our database for station/object EA2MKR. If no packets are shown the sender has not sent any weather packets the latest 10 day(s).
| Time | Temp. | Humidity | Pressure | Rain* | Wind** | Luminosity | Snow |
|---|---|---|---|---|---|---|---|
| 1778000504 | 11.67° C | 78% | 949.6 hPa | 0 mm | - | - | - |
| 1778000202 | 11.67° C | 78% | 949.7 hPa | 0 mm | - | - | - |
| 1777999902 | 11.67° C | 78% | 949.8 hPa | 0 mm | - | - | - |
| 1777999601 | 11.67° C | 76% | 949.8 hPa | 0 mm | - | - | - |
| 1777999301 | 11.67° C | 78% | 949.8 hPa | 0 mm | - | - | - |
| 1777998999 | 11.67° C | 78% | 949.9 hPa | 0 mm | - | - | - |
| 1777998699 | 11.67° C | 78% | 949.8 hPa | 0 mm | - | - | - |
| 1777998396 | 11.67° C | 78% | 949.8 hPa | 0 mm | - | - | - |
| 1777998091 | 11.67° C | 79% | 949.7 hPa | 0 mm | - | - | - |
| 1777997792 | 11.67° C | 78% | 949.8 hPa | 0 mm | - | - | - |
| 1777997491 | 12.22° C | 76% | 949.7 hPa | 0 mm | - | - | - |
| 1777997191 | 12.22° C | 79% | 949.7 hPa | 0 mm | - | - | - |
| 1777996892 | 12.22° C | 77% | 949.7 hPa | 0 mm | - | - | - |
| 1777996696 | 12.78° C | 75% | 949.7 hPa | 0 mm | - | - | - |
| 1777996289 | 12.78° C | 76% | 949.6 hPa | 0 mm | - | - | - |
| 1777995986 | 12.78° C | 76% | 949.6 hPa | 0 mm | - | - | - |
| 1777995684 | 13.33° C | 79% | 949.5 hPa | 0 mm | - | - | - |
| 1777995384 | 12.22° C | 82% | 949.5 hPa | 0 mm | - | - | - |
| 1777995083 | 11.67° C | 80% | 949.6 hPa | 0 mm | - | - | - |
| 1777994775 | 11.67° C | 80% | 949.6 hPa | 0 mm | - | - | - |
| 1777994471 | 11.67° C | 82% | 949.8 hPa | 0 mm | - | - | - |
| 1777994169 | 11.67° C | 81% | 949.7 hPa | 0 mm | - | - | - |
| 1777993869 | 11.67° C | 80% | 949.8 hPa | 0 mm | - | - | - |
| 1777993570 | 11.67° C | 80% | 949.8 hPa | 0.51 mm | - | - | - |
| 1777993276 | 12.22° C | 78% | 949.7 hPa | 0.51 mm | - | - | - |
* Rain latest hour (hover to see other rain measurements)
** Current wind speed in m/s (hover to see current wind gust speed)